This demonstration page uses our WeatherBlox Daily Observations layout. Learn more.

Left ArrowRight Arrow

Hourly Observations for March 9, 2022

Temp ( °F °C ) Dew Point ( °F °C ) Humidity (%) Winds ( mph kmh ) Pressure ( in mb ) Visibility ( mi km ) Precip ( " mm )
12:59 am 00:59 Cloudy with Light Rain 46 7.8 40 4.4 79 79 E 10 17 30.11 1020 7 11 0.05 1.27
1:59 am 01:59 Cloudy with Light Rain 46 7.8 40 4.4 79 79 E 13 20 30.08 1019 6 10 0.02 0.51
2:59 am 02:59 Cloudy with Light Rain 46 7.8 40 4.4 79 79 E 20 31 30.01 1016 6 10 0.01 0.25
3:59 am 03:59 Cloudy with Light Rain 46 7.8 41 5 83 83 ENE 18 30 30.00 1016 4 6 0.01 0.25
4:01 am 04:01 Cloudy with Light Rain 46 7.8 41 5 83 83 ENE 16 26 30.00 1016 4 6 0.00 0.00
4:59 am 04:59 Cloudy with Light Rain 45 7.2 41 5 86 86 ENE 20 31 29.95 1014 5 8 0.11 2.79
5:34 am 05:34 Cloudy with Rain 45 7.2 42 5.6 90 90 ENE 12 19 29.92 1013 3 5 0.10 2.54
5:59 am 05:59 Cloudy with Rain 46 7.8 42 5.6 86 86 NE 15 24 29.93 1014 3 5 0.21 5.33
6:02 am 06:02 Cloudy with Heavy Rain 46 7.8 42 5.6 86 86 NE 16 26 29.93 1014 1 2 0.05 1.27
6:52 am 06:52 Cloudy with Rain 45 7.2 41 5 86 86 NNE 20 31 29.96 1015 2 3 0.32 8.13
6:57 am 06:57 Cloudy with Light Rain 45 7 41 5 87 87 NE 23 37 29.95 1014 3 5 0.32 8.13
6:59 am 06:59 Cloudy with Light Rain 45 7.2 41 5 86 86 NE 24 39 29.95 1014 3 5 0.33 8.38
7:59 am 07:59 Cloudy with Mist and Fog 47 8.3 43 6.1 86 86 NE 13 20 29.92 1013 5 8 0.11 2.79
8:59 am 08:59 Cloudy with Rain 49 9.4 46 7.8 90 90 ENE 9 15 29.92 1013 4 6 0.05 1.27
9:59 am 09:59 Cloudy with Mist and Fog 51 10.6 48 8.9 89 89 ENE 7 11 29.89 1012 4 6 0.02 0.51
10:59 am 10:59 Cloudy with Mist and Fog 51 10.6 48 8.9 89 89 E 10 17 29.83 1010 5 8 0.00 0.00
11:10 am 11:10 Cloudy with Mist and Fog 51 10.6 48 8.9 89 89 ESE 6 9 29.84 1011 5 8 0.00 0.00
11:37 am 11:37 Cloudy with Mist and Fog 51 10.6 48 8.9 89 89 E 6 9 29.83 1010 5 8 0.00 0.00
11:59 am 11:59 Cloudy with Mist and Fog 51 10.6 47 8.3 86 86 NNE 6 9 29.83 1010 3 5 0.00 0.00
12:11 pm 12:11 Cloudy with Mist and Fog 50 10 47 8.3 89 89 Calm 29.83 1010 4 6 0.00 0.00
12:21 pm 12:21 Cloudy with Mist and Fog 51 10.6 48 8.9 89 89 Calm 29.83 1010 4 6 0.00 0.00
12:59 pm 12:59 Cloudy with Mist and Fog 51 10.6 48 8.9 89 89 N 5 7 29.80 1009 5 8 0.00 0.00
1:17 pm 13:17 Cloudy with Mist and Fog 52 11.1 48 8.9 86 86 Calm 29.80 1009 5 8 0.00 0.00
1:59 pm 13:59 Cloudy with Mist and Fog 52 11.1 48 8.9 86 86 N 6 9 29.77 1008 5 8 0.00 0.00
2:23 pm 14:23 Cloudy with Mist and Fog 53 11.7 49 9.4 86 86 W 6 9 29.81 1009 5 8 0.00 0.00
2:59 pm 14:59 Cloudy with Mist and Fog 52 11.1 49 9.4 89 89 W 9 15 29.81 1010 3 4 0.00 0.00
3:59 pm 15:59 Cloudy with Mist and Fog 52 11.1 49 9.4 89 89 NW 14 22 29.84 1011 3 4 0.00 0.00
4:59 pm 16:59 Cloudy with Mist and Fog 50 10 47 8.3 89 89 NW 9 15 29.86 1011 5 8 0.00 0.00
5:59 pm 17:59 Cloudy 50 10 46 7.8 86 86 NW 13 20 29.90 1013 10 16 0.00 0.00
6:21 pm 18:21 Cloudy 50 10 46 7.8 86 86 NW 13 20 29.92 1013 10 16 0.00 0.00
6:59 pm 18:59 Cloudy 50 10 45 7.2 83 83 N 10 17 29.95 1014 10 16 0.00 0.00
7:59 pm 19:59 Cloudy 49 9.4 43 6.1 80 80 NNW 15 24 29.98 1015 10 16 0.00 0.00
8:59 pm 20:59 Cloudy 47 8.3 42 5.6 83 83 N 10 17 30.02 1017 10 16 0.00 0.00
9:37 pm 21:37 Cloudy 47 8.3 41 5 80 80 N 13 20 30.05 1018 10 16 0.00 0.00
9:59 pm 21:59 Cloudy 47 8.3 41 5 80 80 N 14 22 30.05 1018 10 16 0.00 0.00
10:59 pm 22:59 Cloudy 47 8.3 40 4.4 77 77 N 15 24 30.05 1018 10 16 0.00 0.00
11:06 pm 23:06 Partly Cloudy 47 8.3 40 4.4 77 77 NNE 16 26 30.06 1018 10 16 0.00 0.00
11:59 pm 23:59 Mostly Cloudy 46 7.8 38 3.3 73 73 N 15 24 30.05 1018 10 16 0.00 0.00

Powered by AerisWeather